DW3499 Weather Reports


time (UTC)temp
C
wind
direction
speed
KPH
gust
KPH
rain 1hr
cm
rain 24hr
cm
rain mn
cm
humidity
%
barometer
mb
20260503193446 17 241 4.8 9.7 0.00 0.00 0.00 64 1013.0
20260503192924 17 255 1.6 9.7 0.00 0.00 0.00 64 1012.9
20260503192403 17 301 3.2 8.0 0.00 0.00 0.00 64 1012.9
20260503191841 17 301 3.2 8.0 0.00 0.00 0.00 64 1013.0
20260503191322 17 192 3.2 12.9 0.00 0.00 0.00 64 1013.0
20260503190802 17 231 3.2 9.7 0.00 0.00 0.00 63 1013.0
20260503190242 17 215 3.2 11.3 0.00 0.00 0.00 63 1013.0
20260503185722 17 271 1.6 9.7 0.00 0.00 0.00 63 1013.0
20260503185202 17 271 1.6 11.3 0.00 0.00 0.00 63 1013.1
20260503184642 17 256 4.8 11.3 0.00 0.00 0.00 66 1013.1
20260503184120 17 218 3.2 11.3 0.00 0.00 0.00 67 1013.1
20260503183559 17 281 3.2 12.9 0.00 0.00 0.00 67 1013.2
20260503183040 17 327 3.2 12.9 0.00 0.00 0.00 66 1013.2
20260503182520 17 243 1.6 9.7 0.00 0.00 0.00 66 1013.2
20260503181958 17 174 1.6 6.4 0.00 0.00 0.00 64 1013.2
20260503181437 17 236 4.8 11.3 0.00 0.00 0.00 63 1013.1
20260503180918 17 269 3.2 9.7 0.00 0.00 0.00 66 1013.0
20260503180356 16 250 3.2 8.0 0.00 0.00 0.00 66 1013.1
20260503175127 16 271 1.6 8.0 0.00 0.00 0.00 70 1013.1
20260503174606 16 286 1.6 4.8 0.00 0.00 0.00 71 1013.1
20260503174046 16 320 1.6 8.0 0.00 0.00 0.00 72 1013.1
20260503172818 15 263 3.2 8.0 0.00 0.00 0.00 74 1013.0
20260503171550 15 0 0.0 6.4 0.00 0.00 0.00 78 1013.1
20260503171027 15 241 1.6 4.8 0.00 0.00 0.00 79 1013.1
20260503170508 15 235 3.2 6.4 0.00 0.00 0.00 80 1013.2
20260503150912 13 242 1.6 3.2 0.00 0.00 0.00 84 1012.7
20260503150352 13 242 1.6 3.2 0.00 0.00 0.00 84 1012.7
20260503130942 12 0 0.0 0.0 0.00 0.00 0.00 83 1011.3
20260503130422 12 0 0.0 0.0 0.00 0.00 0.00 83 1011.2
20260503110638 12 0 0.0 0.0 0.00 0.00 0.00 80 1011.2
20260503110116 12 0 0.0 0.0 0.00 0.00 0.00 80 1011.3
20260503080423 12 280 1.6 3.2 0.00 0.00 0.00 79 1012.0
20260503072506 12 281 1.6 3.2 0.00 0.00 0.00 79 1012.1
20260503070529 12 287 1.6 3.2 0.00 0.00 0.00 79 1012.1
20260503060308 12 260 3.2 6.4 0.00 0.00 0.00 79 1012.3
20260503055040 12 301 1.6 3.2 0.00 0.00 0.00 79 1012.4
20260503054518 12 302 1.6 6.4 0.00 0.00 0.00 79 1012.3
20260503053958 12 240 1.6 8.0 0.00 0.00 0.00 79 1012.4
20260503053439 12 270 3.2 9.7 0.00 0.00 0.00 79 1012.4
20260503052918 13 254 1.6 6.4 0.00 0.00 0.00 79 1012.4
20260503052358 13 226 1.6 8.0 0.00 0.00 0.00 79 1012.4
20260503051836 13 279 1.6 8.0 0.00 0.00 0.00 79 1012.5
20260503051314 13 265 3.2 6.4 0.00 0.00 0.00 79 1012.5
20260503050752 13 286 1.6 9.7 0.00 0.00 0.00 79 1012.5
20260503050230 13 275 1.6 6.4 0.00 0.00 0.00 79 1012.5
20260503045710 13 286 1.6 8.0 0.00 0.00 0.00 79 1012.5
20260503045148 13 326 3.2 8.0 0.00 0.00 0.00 79 1012.4
20260503044626 13 264 1.6 6.4 0.00 0.00 0.00 79 1012.3
20260503044106 13 252 1.6 6.4 0.00 0.00 0.00 78 1012.4
20260503043544 13 340 3.2 8.0 0.00 0.00 0.00 78 1012.2
20260503043022 13 270 1.6 6.4 0.00 0.00 0.00 78 1012.3
20260503041752 13 263 3.2 8.0 0.00 0.00 0.00 78 1012.2
20260503041230 13 298 1.6 4.8 0.00 0.00 0.00 78 1012.2
20260503040708 13 246 3.2 9.7 0.00 0.00 0.00 78 1012.2
20260503040146 13 313 3.2 8.0 0.00 0.00 0.00 78 1012.1
20260503035624 13 249 1.6 6.4 0.00 0.00 0.00 78 1012.1
20260503035102 13 311 1.6 9.7 0.00 0.00 0.00 77 1012.0
20260503034543 13 273 3.2 6.4 0.00 0.00 0.00 77 1012.0
20260503034020 13 249 3.2 11.3 0.00 0.00 0.00 76 1012.0
20260503033458 13 308 1.6 11.3 0.00 0.00 0.00 76 1012.0
20260503032938 13 302 3.2 8.0 0.00 0.00 0.00 76 1012.0
20260503032416 13 276 3.2 8.0 0.00 0.00 0.00 76 1011.9
20260503031854 13 320 1.6 8.0 0.00 0.00 0.00 76 1011.9
20260503025916 13 300 4.8 8.0 0.00 0.00 0.00 75 1011.5
20260503025354 13 294 3.2 8.0 0.00 0.00 0.00 74 1011.4
20260503024125 13 270 1.6 6.4 0.00 0.00 0.00 74 1011.3
20260503023602 13 280 3.2 8.0 0.00 0.00 0.00 73 1011.3
20260503023040 13 277 3.2 9.7 0.00 0.00 0.00 73 1011.2
20260503022520 14 253 1.6 8.0 0.00 0.00 0.00 73 1011.2
20260503021958 14 274 3.2 11.3 0.00 0.00 0.00 73 1011.2
20260503021436 14 264 4.8 9.7 0.00 0.00 0.00 72 1011.2
20260503020916 14 243 3.2 9.7 0.00 0.00 0.00 72 1011.3
20260503020354 14 295 4.8 11.3 0.00 0.00 0.00 71 1011.2
20260503015832 15 262 4.8 11.3 0.00 0.00 0.00 71 1011.2
20260503015312 15 306 1.6 8.0 0.00 0.00 0.00 70 1011.3
20260503014752 15 302 4.8 11.3 0.00 0.00 0.00 70 1011.4
20260503014230 15 261 3.2 8.0 0.00 0.00 0.00 69 1011.3
20260503013710 15 278 4.8 11.3 0.00 0.00 0.00 69 1011.3
20260503012441 15 243 3.2 11.3 0.00 0.00 0.00 68 1011.4
20260503011918 16 314 3.2 11.3 0.00 0.00 0.00 68 1011.3
20260503011356 16 293 3.2 11.3 0.00 0.00 0.00 67 1011.4
20260503010836 16 220 4.8 11.3 0.00 0.00 0.00 67 1011.3
20260503010316 16 314 3.2 12.9 0.00 0.00 0.00 67 1011.4
20260503004338 16 319 3.2 11.3 0.00 0.00 0.00 67 1011.4
20260503003816 16 187 3.2 9.7 0.00 0.00 0.00 66 1011.5
20260503001840 17 282 3.2 8.0 0.00 0.00 0.00 65 1011.5
20260503001318 17 257 3.2 11.3 0.00 0.00 0.00 65 1011.5
20260503000050 17 211 3.2 11.3 0.00 0.00 0.00 65 1011.5
20260502235528 17 202 1.6 11.3 0.00 0.00 0.00 65 1011.5
20260502235006 17 272 3.2 11.3 0.00 0.00 0.00 64 1011.6
20260502234446 17 185 1.6 11.3 0.00 0.00 0.00 66 1011.5
20260502233924 17 243 4.8 11.3 0.00 0.00 0.00 66 1011.5
20260502232654 17 247 4.8 12.9 0.00 0.00 0.00 66 1011.8
20260502231424 17 228 4.8 14.5 0.00 0.00 0.00 66 1012.0
20260502230902 17 197 4.8 12.9 0.00 0.00 0.00 65 1012.1
20260502230340 17 267 6.4 12.9 0.00 0.00 0.00 65 1012.1
20260502225820 17 235 1.6 9.7 0.00 0.00 0.00 65 1012.2
20260502225300 17 238 4.8 12.9 0.00 0.00 0.00 65 1012.3
20260502224738 17 281 4.8 9.7 0.00 0.00 0.00 65 1012.4
20260502224218 17 284 3.2 9.7 0.00 0.00 0.00 65 1012.4
20260502223656 17 266 4.8 12.9 0.00 0.00 0.00 65 1012.5
20260502223134 17 286 6.4 12.9 0.00 0.00 0.00 66 1012.5
20260502221904 17 282 3.2 14.5 0.00 0.00 0.00 66 1012.8
20260502221342 17 255 3.2 12.9 0.00 0.00 0.00 66 1012.8
20260502220820 17 285 6.4 11.3 0.00 0.00 0.00 65 1012.9
20260502220258 18 241 6.4 12.9 0.00 0.00 0.00 65 1012.9
20260502215736 18 99 3.2 14.5 0.00 0.00 0.00 65 1013.0
20260502215214 17 256 3.2 11.3 0.00 0.00 0.00 66 1013.0
20260502214652 17 272 4.8 11.3 0.00 0.00 0.00 68 1013.1
20260502214130 17 239 3.2 14.5 0.00 0.00 0.00 67 1013.1
20260502213610 17 232 4.8 11.3 0.00 0.00 0.00 67 1013.1
20260502213048 17 248 6.4 16.1 0.00 0.00 0.00 67 1013.2
20260502212526 17 277 4.8 11.3 0.00 0.00 0.00 68 1013.2
20260502212004 17 264 4.8 12.9 0.00 0.00 0.00 67 1013.2
20260502210734 17 208 4.8 11.3 0.00 0.00 0.00 67 1013.3
20260502205506 17 285 3.2 9.7 0.00 0.00 0.00 67 1013.5
20260502204944 17 252 4.8 12.9 0.00 0.00 0.00 67 1013.6
20260502204422 17 273 3.2 9.7 0.00 0.00 0.00 68 1013.6
20260502203900 17 204 6.4 14.5 0.00 0.00 0.00 67 1013.7
20260502201922 17 260 4.8 11.3 0.00 0.00 0.00 68 1013.9
20260502201402 17 296 4.8 9.7 0.00 0.00 0.00 71 1014.0
20260502200840 16 206 3.2 19.3 0.00 0.00 0.00 70 1014.1
20260502200318 16 288 4.8 12.9 0.00 0.00 0.00 71 1014.1
20260502195756 16 261 4.8 11.3 0.00 0.00 0.00 73 1014.1
20260502194526 16 203 4.8 9.7 0.00 0.00 0.00 74 1014.3
20260502194006 16 281 4.8 11.3 0.00 0.00 0.00 76 1014.2